Flag for Norway Weather past 2 weeks in Indre Arna, Norway

Now
52 °F

Cool.


Feels Like: 52 °F
Forecast: 47 / 49 °F
Wind: 1 mph from Northwest

Location: Bergen / Florida

Current Time: Oct 21, 2014 at 9:58:12 PM

Latest Report: Oct 21, 2014 at 9:00 PM


Visibility: N/A

Pressure: 29.23 "Hg

Humidity: 75%

Dew point: 44 °F

Location of Indre ArnaLocation

Historic Weather in Indre Arna — Graph

°F

Indre Arna temperature yesterday

Maximum temperature yesterday: 54 °F (at 12:00 AM)
Minimum temperature yesterday: 47 °F (at 9:00 PM)
Average temperature yesterday: 51 °F

Past Weeks' High & Low Weather Summary

 TemperatureHumidityPressure
High59 °F (Oct 7, 3:00 PM)91% (Oct 14, 10:00 AM)30.03 "Hg (Oct 14, 10:00 AM)
Low36 °F (Oct 16, 4:00 AM)30% (Oct 7, 2:00 PM)29.18 "Hg (Oct 21, 2:00 PM)
Average50 °F73%29.66 "Hg
* Reported Oct 6 8:00 PM — Oct 21 8:00 PM, Indre Arna, Weather by CustomWeather, © 2014

Note: Actual official high and low records may vary slightly from our data, if they occured in-between our weather recording intervals... More about our weather records

Advertising

Indre Arna weather history for previous 24 hours

 ConditionsComfort  
Time TempWeatherWind HumidityBarometerVisibility
8:00 PM
Oct 21
52 °FLight rain. Overcast.3 mph73%29.21 "Hg19 mi
7:00 PM54 °FCool.5 mph67%29.21 "HgN/A
6:00 PM55 °FCool.5 mph61%29.18 "HgN/A
5:00 PM54 °FLight rain. Overcast.6 mph63%29.18 "Hg19 mi
4:00 PM55 °FCool.7 mph59%29.18 "HgN/A
3:00 PM56 °FRefreshingly cool.8 mph59%29.18 "HgN/A
2:00 PM57 °FLight rain. Overcast.9 mph54%29.18 "Hg19 mi
1:00 PM55 °FCool.9 mph61%29.21 "HgN/A
12:00 PM55 °FCool.9 mph58%29.23 "HgN/A
11:00 AM53 °FOvercast.9 mph64%29.26 "Hg19 mi
10:00 AM52 °FCool.8 mph68%29.26 "HgN/A
9:00 AM52 °FCool.8 mph65%29.29 "HgN/A
8:00 AM52 °FOvercast.9 mph67%29.32 "Hg19 mi
7:00 AM51 °FCool.9 mph68%29.35 "HgN/A
6:00 AM50 °FCool.6 mph70%29.38 "HgN/A
5:00 AM50 °FCool.5 mph72%29.41 "HgN/A
4:00 AM50 °FCool.6 mph71%29.44 "HgN/A
3:00 AM49 °FCool.5 mph76%29.47 "HgN/A
2:00 AM49 °FCool.6 mph77%29.50 "HgN/A
1:00 AM48 °FCool.5 mph78%29.54 "HgN/A
12:00 AM48 °FCool.6 mph81%29.55 "HgN/A
11:00 PM
Oct 20
47 °FPassing clouds.3 mph84%29.58 "Hg19 mi
10:00 PM47 °FCool.5 mph87%29.59 "HgN/A
9:00 PM47 °FCool.3 mph87%29.59 "HgN/A
Weather by CustomWeather, © 2014

See weather overviewHow to use our weather pages